Theta_e
307 307 307 306 306 306 306 306 307 308 308 308 309 310 310 310 309 304 306 302 302 303 307 307 317 324 326 325 325 311 318 322 326 327 325 319 324 322 326 331 332 331 327 326 327
308 308 308 307 306 306 306 306 307 309 307 308 308 309 310 309 306 305 310 313 312 309 308 314 319 321 326 327 327 322 318 320 320 322 323 319 318 319 326 333 333 333 323 325 326
309 308 307 306 306 307 306 306 308 308 307 307 307 309 309 307 302 300 310 308 311 310 310 312 314 318 323 327 327 328 324 316 317 317 317 318 317 316 326 332 331 333 324 327 327
307 307 306 307 307 307 307 307 307 306 306 307 308 309 308 306 304 303 308 305 303 311 310 313 313 317 322 325 326 330 325 316 316 320 320 319 319 318 318 327 321 327 324 328 328
305 306 307 308 308 308 308 308 308 307 307 308 308 308 307 305 304 304 303 303 301 308 309 312 310 312 317 317 320 326 326 325 320 321 322 322 322 319 319 317 318 326 326 329 329
307 307 306 306 307 308 309 309 309 308 307 306 308 307 306 304 303 304 303 305 304 305 311 311 310 309 310 313 317 317 318 321 325 320 322 323 322 320 318 322 329 326 325 329 329
307 304 306 307 307 308 308 308 308 308 307 306 306 308 306 304 302 303 304 304 304 305 305 307 311 312 310 307 309 313 319 320 323 325 322 322 324 321 318 328 331 330 324 325 329
303 303 306 306 306 307 307 307 307 307 307 306 306 307 305 304 304 303 303 303 303 304 304 307 307 310 311 308 307 313 316 322 322 325 324 323 329 324 319 324 326 331 328 324 324
302 302 303 304 305 306 306 306 305 305 306 306 306 305 305 305 305 305 304 304 304 304 303 304 304 308 310 309 307 307 314 321 323 323 326 324 327 323 316 322 323 328 330 329 325
302 302 302 301 301 301 302 303 304 306 307 307 307 307 306 306 305 305 305 305 304 305 306 305 306 306 308 307 304 303 307 312 320 322 326 327 327 323 320 320 321 326 330 330 329
303 303 302 303 303 303 305 305 302 302 306 303 305 306 305 305 305 305 306 305 306 306 306 306 306 307 304 306 304 304 305 306 312 317 316 325 328 324 323 317 321 324 328 330 330
303 302 302 301 303 305 305 304 303 303 302 302 303 303 304 304 306 305 306 306 308 309 307 308 306 303 302 303 307 307 306 306 307 314 317 320 322 323 324 323 319 322 328 329 329
302 302 302 301 304 305 305 306 304 303 300 302 302 303 304 304 306 307 306 307 309 309 308 307 306 305 303 303 306 307 307 306 305 310 311 313 320 324 323 323 322 321 324 328 328
302 303 302 301 304 304 305 304 304 303 305 302 304 306 307 308 308 307 306 307 308 310 309 309 307 306 305 304 304 306 306 306 307 309 310 317 325 323 325 324 323 323 319 326 327
301 302 302 301 302 304 305 303 303 304 297 299 305 305 306 306 306 309 306 307 311 310 309 310 307 308 308 307 305 306 305 306 307 308 310 310 314 320 323 326 324 323 322 320 326
301 302 301 301 300 303 304 303 304 297 297 298 303 304 304 306 308 309 309 307 307 310 310 309 306 307 307 307 306 306 306 307 307 311 312 309 312 316 323 324 323 323 322 321 322
301 301 301 300 300 304 303 303 296 300 295 299 302 303 304 306 309 309 311 311 312 311 310 309 309 308 307 308 307 307 309 302 311 313 309 309 315 312 319 319 322 322 322 321 320
301 300 299 301 303 303 302 296 292 287 290 299 303 303 307 309 311 312 311 314 310 309 311 311 311 310 309 308 307 309 309 312 313 314 308 307 319 323 320 318 319 319 320 320 320
301 299 302 304 303 303 295 290 293 291 297 303 303 301 299 307 308 311 311 314 309 308 311 313 312 308 308 307 306 308 310 307 312 316 320 324 325 323 308 305 304 305 311 317 319
300 301 302 302 301 300 295 297 291 297 304 306 305 304 306 307 307 309 312 313 313 310 304 308 311 308 308 308 308 311 309 311 311 315 325 326 327 319 305 305 304 304 304 305 307
300 295 301 301 301 298 292 287 294 299 302 305 304 306 307 308 308 309 312 311 311 311 311 305 310 311 309 311 309 310 310 313 311 311 321 328 316 303 303 303 303 304 306 306 307
295 290 299 300 292 282 287 291 300 302 302 304 305 307 308 309 309 310 311 310 310 310 313 306 310 314 312 306 308 314 315 312 313 320 313 314 307 303 302 302 304 306 306 307 308
289 290 297 298 291 289 294 297 300 302 303 304 306 306 305 309 309 308 308 306 308 309 312 311 313 315 313 313 312 316 317 317 312 315 322 324 308 310 312 304 304 306 305 305 306
288 290 289 290 289 290 289 292 298 300 302 303 305 305 306 307 307 307 307 306 306 308 309 310 310 313 316 316 316 316 315 317 318 322 317 318 314 317 316 307 304 303 302 302 302
286 286 285 290 289 294 296 298 301 297 300 301 303 304 305 302 300 304 305 304 305 306 308 309 312 311 311 311 313 314 315 314 317 317 322 317 319 318 317 309 304 303 302 302 302
288 288 286 287 294 297 297 293 300 301 301 301 302 301 302 303 302 301 302 304 307 306 308 309 312 311 312 310 311 310 308 313 313 313 315 316 315 313 308 304 304 302 302 302 301
290 291 291 294 294 293 290 296 299 299 300 301 302 301 302 301 299 299 300 301 304 307 308 310 310 307 313 310 312 310 307 308 306 303 309 315 312 311 304 303 302 302 301 301 300
Wind_Speed
10 11 13 13 14 14 14 14 12 12 12 12 12 13 13 15 16 18 5 9 11 8 9 12 7 3 1 2 2 4 1 5 6 6 4 2 3 2 2 6 1 6 5 5 30
11 12 13 16 16 14 14 14 12 11 12 12 12 13 13 15 18 9 7 18 15 10 7 8 5 5 2 4 3 4 3 7 4 3 4 1 1 0 1 3 2 3 5 25 30
11 14 16 16 15 14 13 12 13 11 12 13 13 13 12 13 6 4 8 19 6 2 2 4 4 5 6 1 5 4 6 3 3 5 2 2 3 2 5 3 5 8 12 20 27
13 15 16 15 15 14 13 12 12 11 12 13 12 12 10 7 2 2 3 10 9 2 2 2 2 2 3 6 4 7 5 4 4 3 3 3 2 3 4 4 1 6 17 18 19
16 14 16 17 17 16 14 13 12 10 12 12 10 9 4 3 7 5 11 12 7 3 2 2 2 1 2 3 7 8 12 7 11 6 6 2 6 5 7 8 3 9 18 22 20
15 18 17 18 18 17 16 14 13 11 11 11 10 8 1 5 3 6 8 10 7 4 3 4 1 3 3 3 1 4 10 13 12 13 6 5 4 5 7 3 5 12 17 18 21
15 17 16 17 16 13 13 12 12 10 9 9 8 7 4 12 6 10 9 7 6 10 3 4 3 4 6 3 6 6 10 14 14 17 8 3 15 15 8 4 8 8 9 13 14
14 15 14 14 12 7 7 9 10 9 8 7 7 5 5 10 11 17 15 11 13 15 6 5 3 2 2 5 7 4 5 9 5 11 7 9 33 12 12 8 9 9 8 10 14
11 12 12 11 10 8 7 8 9 8 7 6 3 4 7 5 4 6 6 2 4 5 5 4 3 3 2 3 4 5 12 13 8 12 11 17 26 10 7 9 10 9 9 12 11
9 9 10 11 10 10 10 10 7 3 2 3 4 1 5 3 2 1 4 5 4 4 4 2 2 3 5 5 9 6 8 9 10 3 14 22 22 9 8 9 9 8 10 10 11
8 8 10 10 12 10 12 2 4 2 3 7 5 3 1 2 2 6 5 7 4 3 6 5 6 16 16 17 13 5 7 9 14 4 5 18 22 13 14 5 7 8 9 11 14
7 9 10 12 12 5 7 3 3 1 8 11 10 6 15 4 5 6 10 4 6 8 8 5 20 8 6 7 9 11 13 18 12 8 9 16 18 19 16 17 8 10 10 13 13
7 8 11 14 5 3 4 2 4 6 3 5 3 2 2 8 5 4 12 6 7 11 14 14 8 11 16 14 14 16 16 16 14 11 10 7 19 15 21 23 16 16 11 12 14
8 7 11 14 1 5 1 2 7 2 3 4 3 2 1 1 5 6 17 6 7 8 14 14 18 12 12 17 16 17 18 17 12 4 12 6 10 16 18 21 24 21 13 13 12
8 7 9 9 5 1 1 5 6 2 5 3 1 1 3 3 8 3 10 6 7 9 7 6 7 16 19 17 18 17 10 12 9 16 6 23 7 6 17 20 22 24 22 16 16
6 7 8 5 6 2 3 6 2 5 4 6 2 3 6 4 3 1 5 6 2 9 11 17 2 8 8 17 16 2 12 8 9 5 10 25 8 8 11 24 20 18 22 20 15
5 6 7 9 2 2 5 1 4 3 4 7 3 4 7 4 4 3 4 7 5 4 8 11 22 7 8 8 9 14 7 2 4 7 12 10 11 24 10 6 16 21 22 21 18
6 7 6 3 3 2 1 5 5 3 5 4 5 11 3 3 4 4 4 4 12 7 3 4 7 16 10 12 9 16 12 4 7 5 13 12 10 7 18 10 5 4 11 15 16
5 3 1 1 5 3 4 4 6 6 3 6 7 4 5 4 3 5 3 3 2 5 5 5 7 3 10 6 13 6 10 18 6 2 4 9 9 2 8 8 8 7 6 7 12
2 2 3 2 4 2 4 4 3 4 2 1 3 0 3 6 7 8 3 1 5 6 7 5 8 5 7 6 6 6 10 7 9 2 10 4 5 1 10 10 8 8 9 7 6
3 3 1 4 4 3 3 6 4 5 3 1 2 4 5 4 5 5 3 7 7 7 10 5 5 2 8 7 12 9 6 6 5 8 4 4 1 4 6 7 8 6 8 9 10
5 1 2 7 3 1 1 4 3 4 2 3 3 4 4 4 5 4 5 4 10 15 10 2 4 1 1 3 4 4 10 13 4 6 8 3 2 5 7 6 5 4 7 6 5
3 1 2 2 2 2 3 4 2 2 3 3 3 3 3 4 5 5 4 6 8 10 11 6 3 3 1 2 5 3 4 5 6 5 2 3 3 4 6 8 8 8 11 11 12
3 1 3 3 1 5 3 3 3 3 4 1 3 2 5 3 4 6 6 5 9 9 21 10 2 5 2 2 2 3 2 6 8 3 2 3 8 4 9 11 12 13 13 12 13
3 4 2 2 2 3 3 3 2 2 3 2 1 1 3 3 5 4 4 10 5 9 9 8 4 2 2 5 2 5 1 3 3 1 3 11 8 4 6 9 7 6 11 14 14
4 4 1 2 2 5 2 4 4 2 3 3 3 4 3 3 4 7 10 5 4 7 6 6 4 4 4 7 10 12 15 6 3 3 4 7 5 5 11 11 14 14 13 13 11
4 4 3 2 3 4 4 5 7 3 3 3 1 2 4 5 5 10 10 13 8 6 4 5 6 4 2 4 4 5 14 13 8 11 5 6 6 7 12 14 14 13 12 11 10
Wind_Direction
337 334 331 328 322 319 318 321 321 327 328 333 332 330 327 325 322 327 284 291 281 311 313 310 328 286 291 250 170 131 237 220 208 187 252 309 168 55 355 127 233 173 144 155 160
324 323 323 322 317 315 315 316 317 323 329 329 331 332 331 331 329 307 16 342 255 265 318 1 357 356 229 208 204 179 196 226 220 218 231 243 256 71 357 132 178 121 48 133 148
330 317 317 315 312 308 307 306 316 325 326 323 323 330 331 338 336 245 35 28 45 223 270 327 12 342 227 227 200 199 230 200 276 257 266 235 266 290 125 243 209 202 150 150 155
319 314 311 309 306 305 302 300 306 312 312 314 319 330 335 355 350 194 284 355 20 83 226 50 61 172 244 206 230 255 225 208 235 259 234 228 276 254 175 208 28 197 158 156 169
316 316 311 302 295 289 286 286 291 296 298 303 311 325 353 20 256 304 312 323 340 74 135 108 86 122 227 355 351 270 280 249 250 241 237 232 242 254 253 237 253 145 161 172 183
323 318 315 310 300 287 276 276 279 285 291 295 305 317 313 280 284 339 26 51 53 43 51 142 107 273 311 294 216 351 309 287 261 247 240 207 248 170 254 220 114 164 179 181 183
326 327 330 327 313 291 278 271 274 278 283 291 293 304 251 251 270 302 320 346 41 38 32 28 326 26 2 337 345 287 296 291 255 241 237 137 270 221 237 238 143 191 192 189 189
335 337 342 348 342 319 285 277 277 278 280 280 282 295 256 271 280 285 288 287 270 288 253 358 54 104 167 323 336 240 235 255 238 229 235 167 253 237 223 189 214 187 190 192 195
341 344 353 360 356 343 317 291 278 274 275 262 258 209 267 298 292 330 252 267 26 53 215 226 44 184 184 122 341 252 263 242 319 212 223 206 252 241 212 190 219 187 196 204 194
337 344 354 1 356 340 328 307 289 263 255 205 227 264 246 248 201 118 114 151 108 98 60 123 191 214 182 146 222 232 249 256 233 315 224 234 248 241 213 190 221 213 187 205 203
338 347 355 359 344 336 345 37 13 21 217 201 202 240 347 229 233 207 172 135 138 166 171 206 212 219 194 207 238 288 291 278 257 227 14 262 253 227 242 224 227 217 194 197 211
324 334 347 351 331 337 358 56 103 260 297 256 259 270 272 276 293 215 194 195 190 217 186 196 236 241 205 212 232 242 254 268 285 289 267 267 273 251 227 237 209 219 213 198 217
303 320 342 350 360 18 30 98 337 338 274 290 206 193 242 159 235 248 171 201 218 221 213 220 198 199 207 218 216 224 234 247 250 302 283 259 276 271 235 229 216 219 214 208 201
298 317 337 349 27 352 52 324 320 286 341 288 324 354 132 140 275 217 192 185 214 240 219 246 240 242 197 219 212 236 218 233 238 268 250 73 285 234 228 231 227 223 207 201 199
297 308 325 348 315 289 230 307 309 214 27 297 356 307 318 198 320 184 186 191 237 201 177 224 206 221 220 212 201 235 209 222 215 235 274 267 281 241 206 223 224 226 220 212 197
290 302 321 329 309 242 294 299 207 41 271 339 344 350 344 243 257 312 203 230 327 242 233 244 200 213 221 223 202 113 249 232 232 203 243 243 222 283 218 224 222 221 220 219 203
285 301 313 304 293 168 304 329 28 120 329 318 336 333 320 265 266 240 220 197 225 253 229 242 237 219 205 196 200 202 221 203 212 204 234 219 220 233 249 247 206 217 218 213 209
284 304 303 244 212 270 291 47 77 240 246 304 302 318 297 296 243 236 256 252 221 230 291 255 277 189 182 197 191 194 180 219 192 205 244 215 258 249 231 245 192 231 212 213 215
297 345 107 95 213 231 74 53 206 209 221 331 322 18 316 320 287 299 246 268 245 201 245 269 246 178 188 161 171 180 200 221 314 278 282 181 209 158 17 18 10 4 324 257 217
5 77 142 164 175 137 74 236 211 212 299 290 330 153 302 318 320 329 297 107 328 228 197 276 285 204 147 183 226 160 164 170 213 210 241 84 114 306 345 334 338 343 311 286 309
101 60 127 145 158 45 161 224 265 237 197 255 280 284 265 294 289 300 304 305 8 319 301 249 242 63 128 208 169 188 222 220 152 245 312 124 48 347 304 309 308 327 308 353 338
106 36 22 161 54 83 163 199 290 282 137 238 246 256 267 286 289 282 312 283 333 323 315 230 289 332 310 284 248 180 191 196 175 208 201 223 15 357 336 338 317 342 4 11 2
126 175 25 167 155 247 268 279 255 266 228 197 245 209 295 287 298 284 302 306 316 325 341 345 309 319 40 21 16 72 133 175 231 307 296 87 155 355 6 29 19 32 40 31 29
95 72 329 50 42 142 163 267 279 225 260 320 276 334 311 277 211 300 305 309 324 318 331 334 333 333 79 353 333 272 172 170 196 238 210 128 141 48 24 32 24 21 38 34 41
53 238 194 208 276 160 161 168 245 284 248 232 341 139 280 282 314 273 304 309 299 3 329 350 318 327 21 352 65 18 91 147 173 288 293 152 128 114 50 35 24 14 35 30 31
139 140 27 154 138 120 216 228 197 253 218 255 210 294 202 235 197 296 316 321 321 328 320 338 308 328 355 7 84 50 22 10 52 9 53 105 68 332 53 37 26 21 24 23 16
157 128 114 165 129 117 221 205 189 149 256 259 272 299 249 243 237 255 264 272 272 306 312 317 328 351 320 327 343 23 355 12 56 21 344 44 17 49 59 44 31 12 9 19 18